Home   Weather   Wädenswil   Past weeks

Flag for Switzerland Past Weather in Wädenswil, Zurich, Switzerland — Yesterday and Last 2 Weeks

Now
63 °F

Mild.


Feels Like: 63 °F
Forecast: 55 / 66 °F
Wind: 1 mph from Northwest

Location: Zuerich-Fluntern

Current Time: Jul 23, 2017 at 2:42:57 pm

Latest Report: Jul 23, 2017 at 1:00 pm


Visibility: N/A

Pressure: 30.09 "Hg

Humidity: 71%

Dew Point: 53 °F

Location of WädenswilLocation

Past Weather in Wädenswil — Graph

°F

Wädenswil Temperature Yesterday

Maximum temperature yesterday: 81 °F (at 5:00 pm)
Minimum temperature yesterday: 61 °F (at 6:00 am)
Average temperature yesterday: 69 °F

High & Low Weather Summary for the Past Weeks

 TemperatureHumidityPressure
High90 °F (Jul 8, 3:00 pm)97% (Jul 10, 8:00 am)30.29 "Hg (Jul 10, 8:00 am)
Low53 °F (Jul 16, 4:00 am)32% (Jul 19, 5:00 pm)29.77 "Hg (Jul 21, 5:00 pm)
Average68 °F71%30.01 "Hg
* Reported Jul 8 1:00 pm — Jul 23 1:00 pm, Wädenswil. Weather by CustomWeather, © 2017

Note: Actual official high and low records may vary slightly from our data, if they occured in-between our weather recording intervals... More about our weather records

Advertising

Wädenswil Weather History for the Previous 24 Hours

Scroll right to see more
 ConditionsComfort  
Time TempWeatherWind HumidityBarometerVisibility
1:00 pm
Sun, Jul 23
63 °FMild.1 mph71%30.09 "HgN/A
12:00 pm62 °FMild.3 mph74%30.09 "HgN/A
11:00 am61 °FCool.3 mph77%30.09 "HgN/A
10:00 am61 °FCool.3 mph80%30.08 "HgN/A
9:00 am60 °FCool.5 mph83%30.08 "HgN/A
8:00 am61 °FCool.7 mph84%30.06 "HgN/A
7:00 am62 °FMild.2 mph93%30.05 "HgN/A
6:00 am63 °FMild.3 mph92%30.04 "HgN/A
5:00 am63 °FMild.3 mph92%30.03 "HgN/A
4:00 am62 °FCool.5 mph95%30.04 "HgN/A
2:00 am60 °FCool.1 mph95%30.03 "HgN/A
1:00 am61 °FCool.2 mph93%30.01 "HgN/A
12:00 am62 °FCool.1 mph92%30.01 "HgN/A
11:00 pm
Sat, Jul 22
64 °FMild.10 mph92%30.01 "HgN/A
10:00 pm69 °FMild.2 mph66%29.93 "HgN/A
9:00 pm71 °FMild.5 mph61%29.92 "HgN/A
8:00 pm73 °FOvercast.5 mph57%29.91 "HgN/A
7:00 pm76 °FMild.6 mph57%29.90 "HgN/A
6:00 pm78 °FWarm.7 mph45%29.90 "HgN/A
5:00 pm81 °FWarm.6 mph40%29.88 "HgN/A
4:00 pm79 °FWarm.3 mph44%29.90 "HgN/A
3:00 pm78 °FWarm.2 mph50%29.90 "HgN/A
2:00 pm77 °FPassing clouds.5 mph54%29.92 "HgN/A
Weather by CustomWeather, © 2017

See weather overviewHow to use our weather pages